ISS 1 25544U 98067A 01233.46956019 .00003010 00000-0 47749-4 0 3712 2 25544 51.6399 119.7287 0008093 21.6794 347.2599 15.56950620157279 ---- Via the sarex mailing list at AMSAT.ORG courtesy of AMSAT-NA. To unsubscribe, send "unsubscribe sarex" to Majordomo@amsat.org